Wind_Speed
7 7 8 5 5 6 7 7 7 8 9 9 10 10 10 10 10 9 9 8 8 8 9 9 9 9 9 9 10 10 9 10 11 12 12 13 12 16 17 13 11 10 10
9 8 8 7 6 6 6 6 7 6 7 7 7 8 8 8 8 8 9 9 8 8 8 8 8 8 9 9 10 10 9 10 9 9 12 13 12 16 18 14 10 9 11
5 7 9 7 7 6 6 6 5 5 5 6 6 6 6 7 6 7 7 7 7 8 8 8 8 9 9 10 10 10 8 8 7 6 9 10 10 14 16 15 11 11 11
7 7 9 8 6 6 5 4 4 3 4 4 4 5 6 6 7 7 7 6 6 7 8 9 9 9 10 11 10 10 9 7 5 1 7 6 7 14 17 16 12 11 11
8 9 9 7 5 5 4 3 3 3 3 3 4 4 5 5 6 6 7 7 7 7 8 8 9 10 11 12 12 11 10 8 5 1 5 8 7 13 15 16 14 11 10
11 10 9 7 6 5 4 3 3 3 3 3 3 4 5 5 5 5 6 7 8 8 8 8 10 10 11 11 11 12 12 11 9 4 5 7 9 12 16 15 16 11 8
12 11 9 7 6 5 4 4 3 3 3 3 3 4 5 6 7 8 7 8 9 11 11 12 12 13 14 14 13 12 13 12 10 7 5 6 9 14 17 17 14 12 6
13 13 11 8 7 7 7 6 5 4 4 4 4 4 5 6 7 9 10 11 12 12 13 14 14 14 15 15 17 16 15 15 14 11 7 11 11 13 14 17 14 13 8
13 11 11 8 8 8 8 7 6 6 6 6 5 4 3 3 4 5 7 8 9 11 12 13 14 16 16 16 16 16 17 17 17 14 12 11 14 11 14 16 16 14 11
12 10 9 8 10 9 7 6 5 5 6 6 6 4 4 4 4 4 4 5 8 9 11 12 14 15 16 17 18 18 17 16 16 16 16 13 12 14 18 18 15 15 13
12 11 10 9 9 9 7 6 4 7 8 8 8 7 8 8 7 7 7 6 6 7 8 10 13 14 15 15 16 16 15 17 17 19 18 14 15 18 22 20 17 17 16
14 14 13 13 11 10 8 8 9 11 11 10 9 8 8 9 9 8 7 7 9 9 11 12 14 14 14 15 16 16 16 17 18 18 17 13 22 22 23 22 21 20 18
13 15 15 13 11 11 10 10 9 6 6 7 7 8 9 10 10 11 11 11 13 13 15 15 15 15 16 17 17 17 18 21 18 19 19 23 16 24 26 25 24 23 20
15 15 15 13 11 11 10 7 6 4 5 6 8 9 10 12 13 13 14 14 15 17 18 18 18 19 18 18 18 20 19 18 19 21 23 25 20 18 25 25 25 25 23
15 15 15 14 12 11 8 6 3 3 5 8 9 10 11 12 14 14 15 17 17 17 18 20 21 21 22 23 22 21 20 19 19 18 21 23 25 21 21 27 28 28 28
15 15 14 13 12 10 6 3 2 3 6 8 11 12 14 15 16 15 16 17 17 17 18 20 22 23 22 23 24 24 23 22 21 20 20 20 20 23 26 28 27 31 32
15 15 14 13 11 9 5 2 1 3 6 8 10 12 14 15 16 17 18 20 21 20 20 20 20 20 21 23 23 25 25 24 23 22 20 19 20 21 21 20 29 26 35
17 16 15 14 11 8 5 3 1 3 5 7 9 12 14 15 15 16 17 18 19 20 22 22 24 25 25 26 26 26 25 25 24 22 19 17 16 20 21 22 19 27 34
17 17 15 14 11 9 6 4 2 2 6 9 11 13 15 16 17 17 17 18 18 19 20 22 23 24 26 27 28 27 26 27 23 17 14 14 15 15 18 19 21 21 25
18 16 15 14 12 10 8 5 1 3 5 8 11 14 15 16 16 17 17 18 19 20 21 22 24 24 26 28 30 30 25 20 20 20 20 19 19 21 23 24 25 25 25
17 17 15 14 13 11 8 5 3 1 3 7 10 13 15 17 17 17 17 18 19 20 22 24 24 23 24 28 31 33 29 21 12 14 14 26 24 24 25 27 29 30 31
17 16 15 15 13 11 8 7 5 4 1 6 10 12 14 15 17 18 20 21 21 21 22 26 27 24 22 24 25 26 20 26 13 27 22 33 24 27 28 29 26 28 32
17 15 15 14 13 11 9 6 5 3 1 4 8 10 11 12 15 16 19 20 21 21 22 25 26 21 22 19 20 14 12 11 43 12 39 24 34 37 37 34 35 30 30
19 15 14 12 13 12 9 7 6 3 1 4 7 8 9 11 13 17 19 19 20 22 22 21 18 18 17 17 18 11 11 18 14 26 26 45 34 41 40 41 41 40 32
22 20 16 14 13 12 9 6 4 1 2 4 6 7 9 9 13 16 19 21 21 19 17 20 19 17 15 15 15 17 19 19 19 21 41 39 44 40 43 43 41 41 36
25 23 20 17 14 12 10 8 5 2 2 4 6 8 9 10 12 16 18 21 21 16 16 18 18 16 13 14 16 17 17 19 23 27 35 43 45 47 45 42 41 40 36
Wind_Direction
112 144 148 138 116 94 81 81 78 69 62 56 57 55 48 39 37 36 35 37 38 33 32 30 27 23 19 17 11 11 14 12 14 14 18 11 9 10 4 354 350 358 360
130 157 152 140 117 103 96 84 75 71 65 60 55 52 47 45 40 32 28 21 19 22 23 23 20 14 6 4 3 6 10 13 17 17 12 357 4 0 4 357 4 6 359
159 159 150 134 127 112 101 90 83 71 62 52 45 46 36 33 31 34 30 19 8 5 2 7 8 2 356 355 355 357 359 6 20 12 12 354 353 348 349 347 355 359 2
164 149 142 132 119 108 95 87 80 69 53 38 27 29 21 14 10 13 13 9 3 356 350 350 353 349 348 348 348 347 347 350 7 34 353 326 338 335 338 342 349 359 1
158 131 115 106 93 77 72 68 55 45 36 17 9 9 3 360 360 1 354 350 346 344 341 340 338 339 339 340 340 338 335 335 346 195 328 340 295 312 325 346 341 349 9
126 122 113 105 95 86 72 59 48 40 27 6 352 345 342 341 345 345 336 334 327 323 321 321 320 320 323 326 329 329 329 333 336 293 309 330 278 286 319 325 341 335 0
133 124 119 111 99 84 70 62 52 41 24 6 355 347 343 337 335 329 320 317 317 317 318 316 315 314 313 313 312 315 321 323 326 330 264 303 307 279 302 317 331 320 333
142 141 132 119 102 88 84 83 80 70 55 37 29 17 1 351 343 336 331 336 330 322 315 312 311 309 309 309 309 311 313 316 319 322 305 279 292 286 282 311 314 318 302
147 143 134 128 114 101 94 87 76 64 56 55 50 46 37 20 332 344 338 335 328 325 315 311 303 302 300 300 300 304 308 312 310 313 304 287 277 282 276 293 308 315 286
140 140 137 130 117 114 107 92 81 67 62 60 49 39 6 10 22 339 329 345 347 350 336 311 307 303 300 299 300 299 301 301 299 301 310 286 254 276 270 273 289 307 287
142 142 141 137 130 125 125 116 82 79 78 72 70 52 40 36 31 358 348 344 327 315 314 315 304 299 299 298 301 302 295 298 290 294 287 266 268 270 272 262 279 296 290
146 143 147 150 148 138 137 116 105 99 92 74 60 44 29 19 11 3 351 339 314 314 319 317 320 308 301 297 293 294 297 294 292 295 280 278 269 268 261 257 277 287 286
151 151 152 152 149 145 138 125 112 90 77 58 35 20 5 0 354 344 341 331 320 323 320 323 320 320 315 309 307 305 297 294 286 288 286 281 279 275 255 260 273 282 285
159 156 151 155 152 139 131 124 98 69 28 10 4 355 345 344 345 343 339 328 326 332 327 327 321 320 317 314 311 311 310 309 301 287 285 282 281 282 258 258 266 267 276
168 160 156 153 147 141 140 121 95 26 359 347 339 344 343 343 343 342 334 328 334 328 324 318 316 318 320 317 319 317 314 312 310 305 301 290 289 278 264 261 266 263 265
173 166 160 157 153 147 150 131 61 355 341 334 334 345 345 348 351 350 337 336 337 332 325 322 321 321 322 319 317 317 313 314 317 316 311 305 297 290 285 270 274 260 265
177 169 165 162 160 159 164 150 21 323 329 333 345 347 345 347 349 346 338 339 337 337 331 329 325 322 320 318 317 316 320 319 321 320 312 300 295 291 292 298 280 278 265
187 180 174 170 168 172 173 190 263 315 329 341 349 348 347 347 348 341 338 337 335 332 330 328 328 328 325 324 322 322 323 323 322 318 313 307 300 293 288 285 291 274 269
192 185 178 173 175 178 178 197 238 340 351 349 349 346 351 349 346 340 339 335 333 330 326 328 327 328 325 321 321 320 322 324 324 318 315 316 308 304 297 292 286 286 282
199 188 180 177 177 174 182 201 202 356 355 349 349 341 347 345 344 342 340 337 336 333 332 329 329 328 328 326 323 320 323 325 313 301 307 312 304 298 297 295 294 293 287
199 190 181 180 181 185 187 184 165 135 11 345 342 338 344 340 342 342 340 339 341 337 334 331 333 329 330 332 330 326 330 335 319 294 306 315 307 307 311 302 297 297 296
195 192 185 181 186 186 181 166 147 109 348 349 338 339 340 340 346 341 341 342 337 336 334 332 336 342 346 355 349 349 339 338 297 313 301 320 316 315 323 324 315 304 301
199 195 195 185 182 187 183 164 149 160 312 318 324 345 347 345 335 333 333 329 333 336 335 331 334 351 351 359 355 9 339 320 322 311 319 319 317 318 321 323 324 319 309
200 192 205 195 176 184 176 170 170 170 278 335 332 343 332 339 328 325 325 331 339 336 334 340 349 351 356 347 352 343 321 308 320 320 310 317 317 321 322 321 324 328 322
198 187 201 199 187 178 179 175 165 152 322 326 326 321 334 326 319 322 323 327 335 335 338 342 349 357 357 353 346 339 332 322 320 309 311 315 317 320 321 322 323 329 330
196 198 200 201 195 191 179 175 180 203 281 301 308 317 327 318 318 316 318 323 336 336 341 342 348 357 355 351 340 334 328 326 319 314 310 311 312 317 318 322 325 328 328
Height
1546 1547 1548 1545 1544 1542 1542 1543 1542 1542 1542 1542 1542 1542 1542 1543 1542 1541 1541 1541 1540 1541 1540 1540 1539 1538 1538 1537 1537 1536 1536 1536 1535 1533 1531 1531 1529 1528 1526 1525 1523 1521 1520
1542 1545 1545 1544 1543 1542 1543 1543 1542 1542 1542 1542 1543 1542 1543 1543 1543 1542 1541 1542 1541 1541 1540 1540 1539 1538 1538 1537 1536 1535 1535 1536 1535 1533 1531 1530 1529 1528 1526 1525 1523 1521 1520
1541 1543 1543 1543 1543 1542 1542 1542 1542 1542 1542 1542 1543 1542 1543 1542 1543 1542 1541 1541 1542 1541 1540 1539 1538 1538 1537 1537 1536 1535 1534 1534 1533 1531 1531 1528 1527 1527 1526 1525 1523 1522 1520
1540 1541 1541 1542 1541 1541 1541 1541 1542 1542 1541 1542 1543 1541 1542 1543 1543 1542 1541 1541 1541 1540 1540 1539 1538 1537 1536 1536 1535 1534 1533 1533 1532 1531 1531 1529 1527 1527 1526 1525 1523 1521 1519
1537 1538 1539 1539 1540 1540 1540 1541 1541 1541 1541 1542 1542 1541 1542 1542 1541 1541 1541 1540 1540 1539 1539 1538 1537 1536 1535 1534 1533 1533 1532 1532 1531 1531 1531 1529 1528 1528 1527 1526 1524 1521 1519
1535 1536 1537 1538 1539 1539 1540 1540 1540 1540 1541 1541 1541 1541 1541 1540 1540 1540 1539 1540 1539 1538 1538 1537 1536 1535 1534 1533 1532 1531 1531 1531 1531 1531 1530 1529 1527 1527 1527 1526 1524 1523 1520
1534 1535 1535 1536 1538 1538 1539 1539 1540 1540 1540 1540 1540 1540 1540 1539 1539 1539 1538 1538 1538 1537 1537 1536 1536 1534 1533 1532 1530 1529 1530 1529 1529 1529 1529 1528 1527 1527 1527 1525 1524 1523 1521
1531 1532 1534 1536 1537 1538 1539 1539 1539 1540 1539 1540 1539 1539 1539 1539 1538 1538 1538 1537 1537 1536 1536 1535 1534 1533 1531 1530 1529 1529 1529 1528 1528 1528 1528 1526 1525 1525 1525 1524 1523 1523 1521
1531 1532 1534 1535 1537 1538 1539 1539 1539 1540 1539 1539 1538 1537 1537 1537 1537 1537 1536 1535 1534 1534 1533 1532 1531 1530 1528 1527 1527 1527 1527 1527 1526 1525 1524 1524 1523 1522 1521 1522 1521 1521 1520
1532 1533 1535 1535 1536 1537 1538 1539 1538 1538 1538 1538 1538 1537 1536 1536 1536 1535 1535 1534 1533 1532 1530 1529 1528 1527 1526 1525 1524 1524 1523 1523 1522 1521 1520 1519 1520 1520 1519 1518 1518 1517 1518
1531 1532 1533 1535 1535 1536 1537 1536 1537 1537 1537 1537 1537 1537 1536 1536 1536 1535 1534 1532 1531 1529 1528 1526 1525 1523 1522 1521 1521 1520 1519 1518 1518 1517 1516 1515 1514 1514 1515 1515 1515 1514 1514
1529 1531 1532 1532 1533 1534 1535 1536 1536 1536 1537 1537 1537 1537 1536 1535 1534 1533 1532 1531 1529 1527 1526 1525 1523 1521 1519 1517 1516 1516 1516 1514 1514 1513 1512 1512 1511 1511 1512 1513 1512 1511 1510
1528 1529 1531 1532 1533 1534 1534 1535 1536 1537 1537 1537 1537 1536 1535 1534 1534 1532 1531 1529 1527 1526 1524 1522 1520 1518 1516 1514 1513 1512 1512 1510 1510 1509 1508 1507 1505 1506 1508 1509 1508 1508 1508
1527 1529 1530 1532 1533 1533 1535 1535 1535 1535 1535 1535 1535 1534 1533 1532 1531 1530 1528 1526 1525 1523 1521 1519 1516 1515 1513 1511 1510 1509 1508 1507 1505 1505 1503 1501 1501 1501 1502 1503 1502 1503 1504
1526 1528 1529 1530 1532 1533 1534 1534 1534 1534 1533 1534 1533 1533 1532 1531 1529 1528 1526 1524 1523 1521 1519 1516 1513 1512 1510 1508 1506 1505 1504 1502 1501 1501 1499 1498 1497 1497 1497 1498 1499 1499 1500
1524 1526 1528 1529 1530 1531 1532 1534 1533 1533 1532 1532 1532 1530 1529 1528 1526 1525 1523 1521 1520 1518 1515 1513 1511 1508 1506 1504 1503 1501 1500 1498 1498 1497 1495 1493 1491 1491 1491 1492 1493 1493 1494
1522 1524 1526 1527 1528 1529 1530 1532 1532 1531 1531 1530 1530 1528 1527 1526 1524 1522 1520 1519 1517 1514 1512 1511 1509 1506 1503 1500 1498 1496 1496 1495 1493 1491 1489 1487 1485 1484 1484 1484 1483 1482 1483
1520 1521 1523 1525 1526 1527 1529 1530 1530 1529 1529 1529 1529 1527 1527 1526 1524 1521 1520 1518 1516 1512 1509 1507 1504 1502 1499 1495 1493 1491 1491 1490 1488 1486 1483 1482 1480 1478 1478 1476 1475 1477 1476
1518 1520 1522 1523 1525 1526 1526 1527 1527 1527 1527 1527 1527 1526 1524 1523 1522 1520 1518 1516 1514 1510 1507 1505 1503 1499 1496 1493 1489 1488 1486 1485 1482 1480 1479 1478 1477 1475 1473 1472 1471 1470 1469
1516 1519 1520 1521 1523 1523 1524 1525 1525 1525 1525 1525 1524 1524 1523 1522 1520 1519 1516 1514 1512 1508 1506 1503 1500 1498 1493 1489 1486 1483 1482 1481 1477 1475 1474 1474 1473 1471 1470 1468 1465 1463 1463
1514 1516 1518 1518 1519 1521 1522 1523 1524 1525 1524 1524 1523 1522 1521 1520 1519 1517 1515 1512 1510 1506 1504 1501 1499 1495 1491 1486 1481 1477 1475 1475 1471 1470 1469 1469 1466 1465 1464 1463 1460 1457 1455
1514 1514 1516 1516 1517 1518 1520 1521 1522 1523 1523 1523 1522 1522 1520 1518 1516 1514 1512 1510 1508 1505 1502 1498 1496 1492 1490 1487 1485 1479 1471 1468 1469 1469 1465 1463 1461 1459 1458 1456 1453 1450 1448
1511 1513 1513 1515 1515 1516 1517 1519 1520 1520 1521 1522 1522 1521 1519 1517 1515 1514 1512 1509 1507 1504 1502 1498 1495 1493 1489 1490 1488 1488 1482 1476 1464 1459 1458 1457 1455 1452 1451 1448 1445 1444 1442
1508 1511 1512 1513 1514 1514 1516 1517 1518 1519 1520 1520 1520 1519 1518 1516 1514 1513 1511 1508 1506 1502 1498 1495 1492 1491 1491 1489 1487 1489 1489 1485 1476 1456 1451 1450 1449 1446 1444 1441 1439 1437 1436
1502 1506 1509 1510 1511 1512 1514 1515 1516 1517 1518 1518 1518 1517 1517 1515 1512 1510 1507 1507 1505 1502 1499 1495 1492 1490 1490 1489 1486 1485 1484 1482 1479 1473 1449 1444 1444 1444 1440 1436 1434 1431 1429
1497 1501 1505 1507 1508 1510 1511 1512 1513 1514 1515 1514 1514 1514 1513 1512 1510 1509 1506 1505 1503 1499 1496 1495 1493 1492 1489 1487 1485 1483 1481 1480 1476 1472 1461 1448 1441 1435 1434 1431 1429 1427 1424